Location: Penzberg
(47.7615°N, 11.3159°E)
Time: 06:56:20
(UTC+01:00)

ISS - Pass Details

Date: 14 November 2017
Orbit: 401 x 407 km, 51.6° (Epoch: 25 November)

Event Time Altitude Azimuth Distance (km) Brightness Sun altitude
Exits shadow 04:12:57 11° 83° (E) 1,378 -0.3 -31.1°
Drops below altitude 10° 04:13:09 10° 84° (E) 1,455 -0.1 -31.1°
Sets 04:15:17 0° 91° (E) 2,313 1.2 -30.8°
